TimeEST,TemperatureF,Dew PointF,Humidity,Sea Level PressureIn,VisibilityMPH,Wind Direction,Wind SpeedMPH,Gust SpeedMPH,PrecipitationIn,Events,Conditions,WindDirDegrees,DateUTC
12:53 AM,57.9,37.0,46,30.18,10.0,NNW,12.7,-,N/A,,Clear,340,2013-02-01 05:53:00
1:53 AM,57.0,37.9,49,30.18,10.0,NNW,11.5,-,N/A,,Clear,330,2013-02-01 06:53:00
2:53 AM,55.9,37.9,51,30.18,10.0,NNW,11.5,-,N/A,,Clear,330,2013-02-01 07:53:00
3:53 AM,55.0,37.0,51,30.18,10.0,NNW,11.5,-,N/A,,Clear,330,2013-02-01 08:53:00
4:53 AM,54.0,37.0,53,30.18,10.0,NNW,10.4,-,N/A,,Clear,330,2013-02-01 09:53:00
5:53 AM,53.1,37.9,57,30.19,10.0,NNW,10.4,-,N/A,,Clear,340,2013-02-01 10:53:00
6:53 AM,53.1,41.0,64,30.22,-9999.0,NNW,11.5,-,N/A,,Clear,340,2013-02-01 11:53:00
8:53 AM,60.1,45.0,57,30.26,10.0,NNW,15.0,-,N/A,,Clear,340,2013-02-01 13:53:00
9:53 AM,64.9,46.9,52,30.28,10.0,NNW,11.5,-,N/A,,Clear,340,2013-02-01 14:53:00
10:53 AM,69.1,50.0,51,30.28,10.0,North,9.2,-,N/A,,Clear,350,2013-02-01 15:53:00
11:53 AM,71.1,51.1,49,30.27,10.0,North,10.4,19.6,N/A,,Partly Cloudy,10,2013-02-01 16:53:00
12:53 PM,73.0,51.1,46,30.25,10.0,NNE,17.3,24.2,N/A,,Clear,20,2013-02-01 17:53:00
1:53 PM,72.0,53.1,51,30.24,10.0,North,18.4,-,N/A,,Scattered Clouds,10,2013-02-01 18:53:00
2:53 PM,73.0,54.0,51,30.22,10.0,North,17.3,24.2,N/A,,Scattered Clouds,10,2013-02-01 19:53:00
3:53 PM,71.1,52.0,51,30.22,10.0,NNE,17.3,-,N/A,,Scattered Clouds,30,2013-02-01 20:53:00
4:53 PM,71.1,50.0,47,30.22,10.0,NE,16.1,23.0,N/A,,Scattered Clouds,50,2013-02-01 21:53:00
5:53 PM,69.1,50.0,51,30.23,10.0,NNE,15.0,-,N/A,,Scattered Clouds,30,2013-02-01 22:53:00
6:53 PM,66.9,53.1,61,30.24,10.0,North,9.2,-,N/A,,Scattered Clouds,360,2013-02-01 23:53:00
7:53 PM,66.0,53.1,63,30.25,10.0,North,8.1,-,N/A,,Overcast,350,2013-02-02 00:53:00
8:53 PM,64.0,52.0,65,30.25,10.0,North,6.9,-,N/A,,Scattered Clouds,360,2013-02-02 01:53:00
9:53 PM,63.0,51.1,65,30.25,10.0,NNW,5.8,-,N/A,,Mostly Cloudy,340,2013-02-02 02:53:00
10:53 PM,61.0,51.1,70,30.25,10.0,North,3.5,-,N/A,,Mostly Cloudy,350,2013-02-02 03:53:00
11:53 PM,60.1,50.0,69,30.25,10.0,NNW,8.1,-,N/A,,Mostly Cloudy,330,2013-02-02 04:53:00